Capitol Logistics 1131


EBLG
Liège Airport
Liege, BE
EDDF
Frankfurt Rhein-Main
Frankfurt, DE

Route Details

Aircraft Information
Primary: Boeing 737-800BCF
Backup: Not Available
Route Data
Distance: 125nm
Sched. Duration: 1h 00m
Avg. Duration: 0h 47m (-52m)
Times Flown: 7
Recm'd Route: Not Available
Planned Altitude: 25,000ft
Origin Wx: EBLG 190850Z 21023KT 7000 -RA SCT009 BKN015 04/03 Q1009 TEMPO 21020G35KT 4000 RA BKN008
Dest. Wx: EDDF 190850Z 19011KT 5000 SNRA FEW010 SCT020 BKN035 02/M01 Q1015 TEMPO 2500 SN
Notes:

Financial History
Total Freight: 225,457lbs
Average Load: 32,208lbs/flt
Fuel Used: 28,335lbs
Avg. Fuel Used: 4,048lbs/flt
Fuel Expense: $31,452
Avg. Fuel Expense: $4,493
Avg. Fuel Cost: $1.11/lbs
Total Gross Income: $478,370
Pilot Pay: $1,313
Total Expenses: $52,028
Total Revenue: $393,921
Average Revenue: $68,338.60